Location: ????????
(37.9452°N, 23.1472°E)
Time: 05:45:30
(UTC+00:00)

Hubble Space Telescope - Visible Passes

Search period start: 16 July 2024 00:00
Search period end: 26 July 2024 00:00
Orbit: 510 x 513 km, 28.5° (Epoch: 15 July)

Date Brightness Start Highest point End Pass type
(mag) Time Alt. Az. Time Alt. Az. Time Alt. Az.
16 Jul 2.2 18:54:04 10° SW 18:57:03 20° S 18:58:29 17° SSE visible
17 Jul 2.3 18:34:39 10° SW 18:37:35 20° S 18:40:03 12° SE visible
18 Jul 2.4 18:15:14 10° SW 18:18:08 19° S 18:21:01 10° SE visible
